JLY1187 SBKP-SBCT

Flight info

Callsign JLY1187
Flight time 0h 39m
Altitude 32000
Route SOVSI UZ85 RAXIT
Aircraft B738/M-SDE2E3FGHIRWXY/LB1

Departure

Time 2026-05-05 04:20
Airport Viracopos International Airport (SBKP)

Arrival

Time 2026-05-05 04:59
Airport Curitiba-Afonso Pena International Airport (SBCT)
Time Latitude Longitude Altitude Speed Heading
2026-05-05 04:08 -23.00429 -47.14544 2156 ft 0 kts 218°
2026-05-05 04:15 -23.00420 -47.14537 2148 ft 2 kts 217°
2026-05-05 04:15 -23.00407 -47.14526 2149 ft 2 kts 217°
2026-05-05 04:15 -23.00394 -47.14515 2148 ft 2 kts 217°
2026-05-05 04:16 -23.00380 -47.14504 2148 ft 2 kts 219°
2026-05-05 04:16 -23.00369 -47.14491 2150 ft 2 kts 235°
2026-05-05 04:16 -23.00361 -47.14475 2151 ft 2 kts 263°
2026-05-05 04:16 -23.00363 -47.14458 2150 ft 2 kts 291°
2026-05-05 04:17 -23.00366 -47.14449 2151 ft 1 kts 301°
2026-05-05 04:17 -23.00367 -47.14448 2151 ft 0 kts 302°
2026-05-05 04:18 -23.00366 -47.14449 2151 ft 1 kts 304°
2026-05-05 04:18 -23.00341 -47.14484 2152 ft 11 kts 308°
2026-05-05 04:18 -23.00283 -47.14565 2156 ft 15 kts 308°
2026-05-05 04:18 -23.00213 -47.14661 2154 ft 17 kts 307°
2026-05-05 04:19 -23.00081 -47.14731 2156 ft 17 kts 19°
2026-05-05 04:19 -23.00014 -47.14685 2152 ft 17 kts 39°
2026-05-05 04:19 -22.99962 -47.14575 2155 ft 18 kts 90°
2026-05-05 04:19 -23.00068 -47.14390 2156 ft 44 kts 128°
2026-05-05 04:20 -23.00268 -47.14110 2154 ft 94 kts 128°
2026-05-05 04:20 -23.00800 -47.13367 2159 ft 153 kts 127°
2026-05-05 04:20 -23.01523 -47.12372 2547 ft 177 kts 128°
2026-05-05 04:20 -23.02341 -47.11295 3155 ft 190 kts 129°
2026-05-05 04:21 -23.03448 -47.10616 4119 ft 187 kts 172°
2026-05-05 04:21 -23.04764 -47.10736 4820 ft 201 kts 192°
2026-05-05 04:21 -23.06189 -47.11172 5071 ft 232 kts 198°
2026-05-05 04:21 -23.07846 -47.11747 5337 ft 262 kts 198°
2026-05-05 04:22 -23.09651 -47.12385 5797 ft 279 kts 199°
2026-05-05 04:22 -23.11509 -47.13040 6647 ft 282 kts 199°
2026-05-05 04:22 -23.13304 -47.13669 7460 ft 284 kts 199°
2026-05-05 04:22 -23.15192 -47.14325 8306 ft 287 kts 199°
2026-05-05 04:23 -23.17106 -47.14988 9187 ft 290 kts 199°
2026-05-05 04:23 -23.19040 -47.15655 10122 ft 293 kts 199°
2026-05-05 04:23 -23.21012 -47.16335 10752 ft 307 kts 199°
2026-05-05 04:23 -23.23135 -47.17066 11001 ft 332 kts 199°
2026-05-05 04:24 -23.25369 -47.17834 11662 ft 340 kts 199°
2026-05-05 04:24 -23.27639 -47.18612 12539 ft 342 kts 199°
2026-05-05 04:24 -23.29908 -47.19389 13444 ft 344 kts 199°
2026-05-05 04:25 -23.34511 -47.20969 15106 ft 349 kts 199°
2026-05-05 04:25 -23.36841 -47.21770 15916 ft 353 kts 199°
2026-05-05 04:25 -23.39192 -47.22578 16728 ft 356 kts 200°
2026-05-05 04:25 -23.41566 -47.23393 17516 ft 360 kts 200°
2026-05-05 04:26 -23.43965 -47.24218 18282 ft 363 kts 200°
2026-05-05 04:26 -23.46386 -47.25050 18963 ft 367 kts 200°
2026-05-05 04:26 -23.48836 -47.25892 19645 ft 370 kts 200°
2026-05-05 04:26 -23.51297 -47.26738 20342 ft 372 kts 200°
2026-05-05 04:27 -23.53777 -47.27592 21041 ft 375 kts 200°
2026-05-05 04:27 -23.56278 -47.28453 21720 ft 378 kts 201°
2026-05-05 04:27 -23.58799 -47.29321 22368 ft 382 kts 201°
2026-05-05 04:27 -23.61339 -47.30196 23027 ft 384 kts 201°
2026-05-05 04:28 -23.63899 -47.31078 23674 ft 387 kts 201°
2026-05-05 04:28 -23.66476 -47.31967 24219 ft 390 kts 201°
2026-05-05 04:28 -23.69073 -47.32862 24769 ft 392 kts 201°
2026-05-05 04:28 -23.71685 -47.33763 25311 ft 394 kts 201°
2026-05-05 04:29 -23.74302 -47.34666 25915 ft 394 kts 202°
2026-05-05 04:29 -23.76899 -47.35561 26738 ft 388 kts 202°
2026-05-05 04:29 -23.79456 -47.36441 27547 ft 383 kts 202°
2026-05-05 04:29 -23.81993 -47.37317 28202 ft 383 kts 203°
2026-05-05 04:30 -23.84534 -47.38197 28846 ft 382 kts 203°
2026-05-05 04:30 -23.87063 -47.39072 29557 ft 380 kts 204°
2026-05-05 04:30 -23.89572 -47.39940 30305 ft 376 kts 204°
2026-05-05 04:30 -23.92058 -47.40800 30894 ft 375 kts 204°
2026-05-05 04:31 -23.94547 -47.41663 31403 ft 375 kts 204°
2026-05-05 04:31 -23.97031 -47.42525 31900 ft 375 kts 204°
2026-05-05 04:31 -23.99526 -47.43391 32165 ft 378 kts 204°
2026-05-05 04:32 -24.04641 -47.45172 32187 ft 396 kts 204°
2026-05-05 04:32 -24.09993 -47.47113 32184 ft 411 kts 208°
2026-05-05 04:33 -24.15003 -47.50205 32175 ft 419 kts 217°
2026-05-05 04:33 -24.19918 -47.53675 32163 ft 424 kts 217°
2026-05-05 04:34 -24.24886 -47.57149 32171 ft 424 kts 217°
2026-05-05 04:34 -24.29877 -47.60613 32156 ft 424 kts 217°
2026-05-05 04:35 -24.34857 -47.64067 32146 ft 423 kts 217°
2026-05-05 04:35 -24.39828 -47.67518 32159 ft 422 kts 217°
2026-05-05 04:36 -24.44501 -47.71301 32164 ft 415 kts 226°
2026-05-05 04:36 -24.48687 -47.75647 32155 ft 413 kts 228°
2026-05-05 04:37 -24.52844 -47.80007 32146 ft 413 kts 227°
2026-05-05 04:37 -24.57035 -47.84334 32159 ft 413 kts 227°
2026-05-05 04:38 -24.61241 -47.88643 32152 ft 414 kts 227°
2026-05-05 04:38 -24.65451 -47.92952 32153 ft 414 kts 227°
2026-05-05 04:39 -24.69659 -47.97263 32160 ft 414 kts 227°
2026-05-05 04:39 -24.73867 -48.01579 32154 ft 414 kts 227°
2026-05-05 04:40 -24.78076 -48.05901 32173 ft 414 kts 227°
2026-05-05 04:40 -24.80165 -48.08046 32042 ft 405 kts 227°
2026-05-05 04:40 -24.82223 -48.10159 30846 ft 404 kts 227°
2026-05-05 04:40 -24.84271 -48.12266 29741 ft 401 kts 227°
2026-05-05 04:41 -24.86277 -48.14332 28567 ft 398 kts 227°
2026-05-05 04:41 -24.88289 -48.16404 27432 ft 395 kts 226°
2026-05-05 04:41 -24.90287 -48.18464 26340 ft 392 kts 226°
2026-05-05 04:41 -24.92267 -48.20511 25279 ft 389 kts 227°
2026-05-05 04:42 -24.93959 -48.22749 24993 ft 370 kts 237°
2026-05-05 04:42 -24.95302 -48.25116 24738 ft 359 kts 244°
2026-05-05 04:42 -24.96333 -48.27580 24402 ft 351 kts 247°
2026-05-05 04:42 -24.97287 -48.30038 24009 ft 347 kts 248°
2026-05-05 04:43 -24.98217 -48.32475 23553 ft 344 kts 248°
2026-05-05 04:43 -24.99141 -48.34895 23078 ft 341 kts 248°
2026-05-05 04:43 -25.00058 -48.37290 22623 ft 337 kts 248°
2026-05-05 04:43 -25.00968 -48.39655 22210 ft 334 kts 248°
2026-05-05 04:44 -25.01871 -48.41996 21784 ft 330 kts 248°
2026-05-05 04:44 -25.02768 -48.44316 21373 ft 327 kts 248°
2026-05-05 04:44 -25.03655 -48.46608 20966 ft 324 kts 248°
2026-05-05 04:44 -25.04536 -48.48884 20570 ft 322 kts 248°
2026-05-05 04:45 -25.05412 -48.51148 20170 ft 320 kts 248°
2026-05-05 04:45 -25.06281 -48.53395 19774 ft 318 kts 248°
2026-05-05 04:45 -25.07149 -48.55638 19364 ft 317 kts 249°
2026-05-05 04:45 -25.08012 -48.57871 18957 ft 316 kts 249°
2026-05-05 04:46 -25.08872 -48.60095 18563 ft 315 kts 249°
2026-05-05 04:46 -25.09729 -48.62315 18120 ft 314 kts 249°
2026-05-05 04:46 -25.10583 -48.64526 17708 ft 312 kts 249°
2026-05-05 04:46 -25.11430 -48.66723 17313 ft 310 kts 249°
2026-05-05 04:47 -25.12273 -48.68907 16908 ft 308 kts 248°
2026-05-05 04:47 -25.13109 -48.71075 16529 ft 306 kts 248°
2026-05-05 04:47 -25.13937 -48.73226 16153 ft 304 kts 248°
2026-05-05 04:47 -25.14761 -48.75365 15776 ft 303 kts 248°
2026-05-05 04:48 -25.15583 -48.77500 15388 ft 301 kts 248°
2026-05-05 04:48 -25.16391 -48.79600 15016 ft 296 kts 248°
2026-05-05 04:48 -25.17192 -48.81684 14637 ft 294 kts 248°
2026-05-05 04:48 -25.17990 -48.83760 14259 ft 293 kts 248°
2026-05-05 04:49 -25.18775 -48.85805 13870 ft 293 kts 248°
2026-05-05 04:49 -25.19581 -48.87904 13454 ft 293 kts 248°
2026-05-05 04:49 -25.20374 -48.89969 13060 ft 291 kts 248°
2026-05-05 04:49 -25.21163 -48.92025 12686 ft 290 kts 248°
2026-05-05 04:50 -25.21947 -48.94065 12299 ft 288 kts 248°
2026-05-05 04:50 -25.22672 -48.95954 11952 ft 287 kts 248°
2026-05-05 04:50 -25.23477 -48.98055 11550 ft 287 kts 248°
2026-05-05 04:50 -25.24251 -49.00081 11163 ft 287 kts 248°
2026-05-05 04:51 -25.25028 -49.02113 10780 ft 287 kts 247°
2026-05-05 04:51 -25.25803 -49.04142 10479 ft 285 kts 247°
2026-05-05 04:51 -25.26552 -49.06103 10307 ft 277 kts 247°
2026-05-05 04:51 -25.27294 -49.08044 10060 ft 273 kts 247°
2026-05-05 04:52 -25.28032 -49.09974 9715 ft 273 kts 247°
2026-05-05 04:52 -25.28769 -49.11902 9381 ft 272 kts 248°
2026-05-05 04:52 -25.29502 -49.13826 9057 ft 271 kts 248°
2026-05-05 04:52 -25.30232 -49.15741 8724 ft 270 kts 248°
2026-05-05 04:53 -25.30960 -49.17653 8398 ft 269 kts 248°
2026-05-05 04:53 -25.31686 -49.19557 8086 ft 268 kts 248°
2026-05-05 04:53 -25.32404 -49.21438 7905 ft 262 kts 248°
2026-05-05 04:53 -25.33116 -49.23263 7757 ft 255 kts 244°
2026-05-05 04:54 -25.34206 -49.24797 7498 ft 255 kts 225°
2026-05-05 04:54 -25.35499 -49.26135 7243 ft 251 kts 225°
2026-05-05 04:54 -25.36710 -49.27404 7005 ft 235 kts 225°
2026-05-05 04:54 -25.37861 -49.28620 6743 ft 220 kts 226°
2026-05-05 04:55 -25.38938 -49.29717 6469 ft 207 kts 217°
2026-05-05 04:55 -25.40265 -49.30156 6150 ft 197 kts 173°
2026-05-05 04:55 -25.41432 -49.29577 5945 ft 183 kts 147°
2026-05-05 04:55 -25.42518 -49.28849 5717 ft 170 kts 142°
2026-05-05 04:56 -25.43389 -49.28094 5472 ft 155 kts 137°
2026-05-05 04:56 -25.44181 -49.27305 5279 ft 147 kts 132°
2026-05-05 04:56 -25.44906 -49.26512 5101 ft 148 kts 130°
2026-05-05 04:56 -25.45629 -49.25703 4920 ft 148 kts 130°
2026-05-05 04:57 -25.46350 -49.24892 4716 ft 147 kts 130°
2026-05-05 04:57 -25.47061 -49.24091 4520 ft 146 kts 130°
2026-05-05 04:57 -25.47770 -49.23291 4332 ft 145 kts 131°
2026-05-05 04:57 -25.48108 -49.22910 4235 ft 145 kts 131°
2026-05-05 04:58 -25.48811 -49.22119 4053 ft 144 kts 131°
2026-05-05 04:58 -25.49517 -49.21321 3822 ft 141 kts 132°
2026-05-05 04:58 -25.50204 -49.20549 3615 ft 142 kts 133°
2026-05-05 04:58 -25.50896 -49.19770 3401 ft 141 kts 133°
2026-05-05 04:59 -25.51567 -49.19015 3204 ft 139 kts 133°
2026-05-05 04:59 -25.52243 -49.18255 3021 ft 138 kts 133°
2026-05-05 04:59 -25.52861 -49.17562 2988 ft 110 kts 135°
2026-05-05 04:59 -25.53081 -49.17316 2991 ft 15 kts 135°
2026-05-05 05:00 -25.53168 -49.17297 2992 ft 15 kts 219°
2026-05-05 05:00 -25.53218 -49.17358 2992 ft 4 kts 243°
2026-05-05 05:00 -25.53208 -49.17396 2992 ft 7 kts 308°
2026-05-05 05:00 -25.53172 -49.17440 2991 ft 8 kts 304°
2026-05-05 05:01 -25.53190 -49.17493 2992 ft 7 kts 228°
2026-05-05 05:01 -25.53202 -49.17506 2992 ft 0 kts 224°